Temp
17 18 18 18 19 19 19 20 20 21 21 21 21 22 22 22 23 23 23 25 26 26 27 25 25 27 28 29 31 31 31 33 33 30 33 32 32 31 30 29 29 28 27 25 23
17 17 18 18 18 18 19 20 20 20 21 21 21 22 22 22 23 23 25 25 25 26 26 27 28 28 30 31 32 33 25 33 35 33 34 33 32 31 30 29 29 28 27 24 23
17 17 17 18 18 18 19 19 20 20 21 21 21 22 22 22 22 27 25 25 26 26 27 28 29 29 30 32 33 34 29 33 35 34 34 33 32 31 31 30 29 28 26 24 23
16 16 17 17 18 18 19 19 19 20 20 21 21 22 22 22 27 26 25 25 25 26 26 28 29 30 32 33 33 34 33 34 35 33 34 34 33 32 31 31 29 28 26 24 24
15 16 16 17 18 18 18 19 19 20 20 20 21 21 21 22 26 26 26 25 25 24 26 28 29 31 32 34 34 34 35 34 34 33 34 33 33 33 32 31 29 28 26 25 24
15 16 16 17 18 18 18 19 20 20 20 21 21 21 21 25 27 25 25 24 25 25 26 28 29 31 32 33 35 35 35 35 34 34 33 34 33 32 31 30 29 28 26 25 25
15 16 16 16 17 18 18 19 20 20 21 21 21 21 19 24 26 25 25 25 26 26 27 28 29 31 32 34 34 34 34 35 35 35 34 33 33 32 32 30 29 28 27 26 26
14 15 16 16 17 18 18 19 20 21 21 21 21 20 22 26 25 26 25 25 26 26 27 29 29 30 32 33 34 34 35 34 35 35 34 33 32 33 32 31 30 29 27 27 26
13 14 15 16 17 18 18 19 20 21 21 21 20 18 25 26 25 25 26 26 27 27 27 28 28 29 31 32 33 34 33 34 34 35 35 34 32 34 32 31 31 30 29 27 26
11 13 14 15 16 17 18 19 20 21 20 19 17 20 23 27 27 27 27 27 27 27 27 28 29 31 32 33 31 33 33 35 34 35 35 33 32 34 32 32 32 30 30 28 27
11 13 14 15 16 17 19 18 18 17 16 24 26 27 28 28 27 27 27 27 28 28 29 29 30 31 32 33 34 35 35 35 36 36 34 34 34 34 33 32 32 31 30 29 28
10 11 13 14 16 17 17 19 20 18 21 23 25 25 27 27 28 27 27 28 29 29 30 31 30 33 33 34 34 34 35 35 36 35 35 35 34 35 34 33 32 32 31 30 29
10 10 12 14 16 15 15 17 17 18 22 25 27 27 27 27 27 28 28 28 30 30 31 31 32 33 33 33 33 34 34 35 35 35 35 35 34 35 35 33 32 32 32 31 30
10 10 11 14 14 14 17 16 16 17 23 29 28 28 27 27 28 27 29 29 30 30 31 32 34 33 33 33 34 33 35 35 36 33 32 35 33 34 35 35 34 32 32 31 30
10 10 10 10 13 14 16 16 16 18 24 31 29 28 28 28 30 29 29 29 30 31 31 31 32 33 32 33 34 33 35 35 35 35 30 34 34 34 36 35 35 34 32 32 31
9 10 10 11 10 14 14 14 17 22 24 29 29 28 29 29 30 29 29 29 30 31 31 32 33 33 33 34 34 34 34 35 35 35 33 34 33 34 33 36 36 36 33 32 32
9 10 11 10 13 14 14 16 22 23 29 30 30 30 30 30 30 30 29 29 29 28 29 31 32 33 34 32 34 33 33 31 32 32 32 35 34 30 37 37 37 37 36 34 32
9 10 12 11 12 12 13 19 20 26 27 31 31 31 30 32 31 30 30 29 30 31 31 30 29 32 33 33 32 33 33 32 29 31 33 35 33 35 37 37 37 37 36 36 33
9 9 11 13 12 11 15 19 22 25 29 29 30 30 30 31 31 31 30 30 31 31 30 31 30 33 33 33 33 33 33 35 33 34 34 35 35 36 37 37 37 36 36 36 34
5 8 12 13 11 11 16 18 23 26 28 28 28 30 29 30 30 30 31 32 31 32 32 31 30 33 33 33 33 33 35 33 34 31 31 34 34 35 35 35 36 36 36 36 35
6 12 13 12 11 13 17 19 21 22 25 26 27 28 29 30 31 30 30 31 32 32 32 32 31 31 33 32 31 32 33 34 34 34 32 32 34 37 36 35 35 36 36 36 35
7 13 13 12 14 16 18 19 20 23 24 25 26 26 27 29 29 29 30 31 32 32 31 32 31 30 31 33 33 33 32 33 33 31 33 34 34 38 37 36 36 36 36 36 35
7 10 12 13 14 17 18 20 21 22 23 24 24 25 26 26 26 28 29 31 31 31 31 32 30 29 30 32 33 32 32 33 34 34 32 32 33 37 37 36 36 36 36 36 35
5 12 14 13 14 16 17 18 19 20 21 21 22 24 24 25 27 26 28 30 30 30 26 29 31 29 30 30 32 31 31 32 33 33 32 33 33 35 36 35 35 35 35 35 35
5 10 12 13 15 12 12 12 15 14 18 19 20 21 23 23 24 25 27 29 29 29 27 29 28 30 31 32 32 32 32 32 32 33 32 33 33 35 35 36 36 35 35 35 35
3 7 8 9 10 11 10 12 13 14 15 14 17 20 22 22 24 24 26 27 28 29 28 29 28 29 29 31 31 31 32 32 32 32 33 33 33 36 36 35 35 35 35 35 35
2 3 5 8 10 12 13 12 13 15 14 13 15 13 17 21 19 19 21 26 27 27 27 28 28 27 27 30 30 29 31 31 32 33 32 31 33 34 35 35 36 35 34 34 34
Height
1528 1526 1524 1522 1519 1517 1515 1513 1511 1509 1508 1506 1503 1501 1500 1498 1496 1492 1491 1494 1494 1495 1495 1497 1499 1500 1499 1495 1486 1485 1484 1472 1473 1484 1478 1485 1485 1493 1496 1502 1505 1507 1512 1523 1529
1526 1524 1522 1520 1517 1515 1513 1510 1508 1507 1505 1503 1501 1499 1497 1495 1491 1487 1487 1488 1489 1492 1493 1495 1496 1497 1494 1489 1483 1483 1501 1470 1461 1472 1471 1482 1485 1492 1497 1503 1505 1512 1514 1524 1530
1524 1522 1519 1517 1515 1512 1510 1508 1506 1504 1502 1500 1499 1497 1495 1492 1487 1477 1481 1482 1481 1486 1491 1493 1493 1493 1490 1484 1479 1476 1494 1470 1466 1469 1470 1481 1484 1490 1492 1500 1504 1511 1517 1524 1529
1521 1519 1517 1514 1512 1509 1507 1505 1503 1501 1499 1497 1496 1494 1492 1492 1483 1478 1480 1480 1480 1483 1488 1490 1490 1488 1486 1480 1476 1474 1472 1470 1467 1474 1471 1476 1481 1487 1492 1491 1502 1510 1517 1523 1528
1519 1516 1514 1512 1509 1507 1504 1501 1500 1498 1496 1494 1493 1492 1490 1489 1481 1475 1477 1478 1479 1482 1485 1486 1486 1484 1480 1475 1471 1469 1467 1467 1469 1473 1472 1474 1479 1484 1492 1496 1502 1508 1516 1522 1526
1516 1513 1511 1508 1506 1504 1500 1498 1496 1494 1492 1490 1490 1489 1487 1484 1476 1474 1475 1476 1478 1480 1482 1483 1481 1482 1478 1474 1467 1465 1465 1466 1467 1466 1472 1472 1478 1486 1490 1497 1501 1507 1514 1519 1524
1514 1511 1507 1505 1502 1500 1497 1494 1491 1489 1488 1487 1486 1485 1484 1476 1473 1473 1474 1475 1476 1478 1478 1479 1481 1480 1478 1471 1468 1466 1467 1464 1466 1464 1469 1472 1478 1482 1485 1496 1500 1506 1512 1516 1521
1513 1509 1505 1501 1498 1495 1493 1490 1488 1485 1483 1482 1482 1481 1476 1469 1469 1469 1470 1471 1473 1474 1476 1476 1479 1478 1475 1472 1465 1465 1463 1466 1454 1461 1465 1472 1476 1475 1483 1491 1495 1503 1508 1513 1518
1509 1506 1502 1499 1495 1491 1487 1485 1482 1480 1479 1477 1478 1479 1469 1462 1463 1463 1466 1467 1469 1470 1473 1475 1477 1477 1476 1472 1468 1460 1469 1461 1458 1456 1461 1469 1472 1468 1480 1487 1491 1498 1503 1509 1514
1506 1503 1498 1496 1492 1489 1485 1480 1477 1475 1473 1473 1474 1480 1460 1457 1458 1460 1462 1464 1465 1468 1471 1472 1472 1470 1469 1464 1476 1465 1462 1447 1453 1453 1457 1466 1468 1463 1475 1481 1485 1492 1497 1504 1509
1503 1499 1496 1492 1489 1486 1483 1480 1478 1474 1472 1462 1457 1452 1451 1454 1455 1458 1459 1460 1462 1464 1461 1462 1462 1460 1458 1454 1452 1445 1444 1445 1439 1440 1455 1460 1461 1461 1470 1476 1479 1485 1492 1498 1503
1501 1496 1493 1490 1486 1484 1482 1483 1481 1480 1465 1456 1452 1449 1448 1451 1451 1452 1455 1457 1456 1454 1456 1454 1454 1447 1450 1451 1451 1446 1443 1442 1435 1437 1448 1451 1455 1450 1461 1470 1474 1478 1484 1491 1497
1499 1493 1491 1487 1484 1483 1483 1482 1480 1478 1466 1439 1435 1436 1438 1444 1441 1443 1447 1449 1447 1447 1444 1442 1440 1444 1445 1446 1449 1446 1444 1438 1439 1436 1450 1444 1456 1449 1450 1461 1469 1472 1476 1482 1488
1496 1492 1489 1486 1486 1482 1481 1480 1479 1478 1462 1424 1424 1426 1431 1435 1433 1434 1433 1440 1441 1440 1439 1437 1433 1436 1441 1443 1443 1450 1439 1434 1433 1450 1465 1441 1464 1443 1441 1447 1458 1465 1469 1473 1480
1492 1491 1486 1486 1482 1482 1483 1480 1478 1480 1465 1407 1416 1418 1421 1426 1420 1423 1428 1432 1431 1431 1433 1432 1430 1430 1437 1434 1436 1441 1433 1435 1433 1435 1463 1440 1452 1434 1434 1438 1443 1453 1460 1465 1471
1489 1487 1483 1484 1480 1477 1477 1477 1480 1472 1451 1409 1410 1415 1417 1417 1416 1421 1422 1426 1428 1426 1425 1423 1423 1425 1424 1429 1431 1435 1434 1432 1432 1433 1450 1433 1443 1439 1444 1429 1429 1436 1449 1457 1463
1485 1482 1481 1479 1479 1478 1478 1479 1469 1450 1404 1403 1404 1405 1407 1405 1407 1415 1419 1418 1421 1432 1428 1423 1418 1417 1420 1430 1429 1433 1439 1458 1459 1451 1453 1422 1433 1452 1411 1414 1422 1428 1432 1441 1452
1480 1477 1473 1471 1473 1473 1476 1473 1456 1410 1409 1388 1393 1396 1402 1393 1397 1402 1409 1413 1410 1409 1410 1423 1430 1413 1412 1417 1426 1426 1428 1443 1469 1454 1442 1420 1433 1417 1404 1409 1415 1420 1425 1428 1441
1475 1473 1470 1469 1469 1470 1472 1450 1422 1416 1396 1396 1393 1396 1395 1391 1393 1395 1398 1401 1398 1402 1409 1406 1413 1400 1406 1413 1420 1417 1423 1414 1428 1418 1429 1416 1409 1403 1402 1406 1412 1419 1422 1422 1430
1472 1468 1462 1463 1463 1465 1459 1429 1412 1408 1398 1396 1397 1388 1394 1388 1391 1392 1388 1385 1388 1389 1393 1393 1408 1393 1398 1409 1410 1409 1406 1426 1413 1443 1443 1417 1412 1412 1405 1412 1411 1413 1415 1419 1424
1473 1467 1456 1459 1461 1458 1434 1420 1420 1413 1407 1405 1395 1390 1382 1382 1378 1379 1384 1380 1377 1380 1385 1390 1394 1396 1392 1394 1403 1409 1406 1401 1408 1412 1429 1433 1410 1384 1394 1401 1406 1408 1409 1411 1419
1477 1463 1452 1456 1454 1440 1425 1423 1420 1407 1404 1403 1398 1389 1387 1379 1379 1375 1375 1370 1368 1375 1378 1381 1388 1399 1388 1383 1389 1394 1399 1400 1408 1422 1407 1407 1402 1374 1386 1393 1401 1400 1402 1405 1409
1473 1459 1452 1451 1440 1429 1423 1415 1411 1406 1402 1398 1394 1394 1390 1387 1386 1377 1372 1366 1370 1374 1370 1376 1387 1398 1397 1386 1380 1387 1387 1384 1387 1391 1401 1414 1405 1377 1382 1387 1393 1400 1404 1405 1407
1476 1450 1439 1438 1436 1428 1421 1411 1406 1402 1402 1402 1396 1392 1389 1388 1378 1380 1375 1367 1368 1377 1379 1375 1372 1382 1382 1384 1374 1388 1387 1383 1383 1390 1394 1393 1396 1381 1381 1390 1396 1400 1401 1402 1403
1473 1455 1446 1434 1424 1436 1434 1429 1418 1417 1407 1406 1400 1392 1385 1383 1384 1378 1373 1367 1367 1373 1378 1373 1379 1370 1369 1365 1366 1369 1376 1378 1382 1378 1386 1383 1386 1378 1378 1381 1387 1394 1399 1399 1399
1472 1462 1456 1449 1441 1437 1436 1430 1420 1420 1419 1414 1400 1391 1387 1382 1378 1375 1370 1367 1362 1366 1371 1368 1376 1370 1372 1364 1367 1370 1364 1368 1372 1375 1374 1377 1376 1369 1374 1376 1381 1387 1392 1395 1395
1467 1463 1460 1449 1442 1431 1424 1426 1421 1414 1418 1420 1413 1410 1396 1387 1389 1382 1374 1363 1360 1363 1367 1367 1368 1376 1380 1366 1366 1379 1364 1361 1361 1361 1368 1379 1368 1372 1370 1370 1372 1378 1384 1390 1392
Wind_Speed
15 16 16 15 15 16 17 16 15 15 15 15 17 17 16 17 18 21 15 13 10 10 13 9 12 12 12 16 17 14 9 1 6 18 15 12 12 9 11 16 14 6 18 25 27
15 16 16 16 17 17 17 17 17 16 16 15 16 19 18 19 20 22 20 21 21 16 15 17 16 14 17 15 17 9 8 8 8 17 17 10 13 14 13 15 14 10 22 26 27
16 16 16 16 17 17 18 18 18 18 17 16 15 17 18 19 22 11 8 3 16 20 16 18 15 16 19 20 16 15 12 20 10 8 13 14 12 13 13 12 18 17 23 28 27
15 16 18 18 18 18 19 19 20 20 19 18 16 15 17 14 7 1 6 8 0 22 19 20 21 20 20 17 17 14 17 15 6 7 6 13 15 13 9 14 16 18 22 28 28
17 17 17 18 19 20 20 21 20 20 21 20 18 16 16 10 18 15 15 16 9 17 21 23 24 23 20 19 17 12 10 4 4 8 9 14 12 11 10 10 16 19 23 27 27
20 19 19 19 19 20 21 21 21 20 20 21 19 17 15 19 10 6 6 6 11 17 23 23 23 23 21 23 17 13 14 9 5 11 11 10 13 10 15 13 18 21 24 26 27
21 21 22 21 21 19 20 22 22 21 20 20 18 16 13 22 7 9 12 11 12 16 21 25 25 21 24 18 20 15 10 13 10 10 11 14 14 13 20 16 19 21 22 25 26
21 21 22 22 23 23 21 20 21 21 20 18 16 10 12 9 11 17 14 14 15 16 19 17 23 24 23 22 23 19 17 16 14 14 13 17 18 17 16 20 20 21 22 25 27
23 23 24 22 21 22 22 22 20 19 19 17 8 6 14 10 11 11 14 15 15 15 16 17 17 28 19 17 16 16 17 20 13 16 14 16 12 18 20 21 20 21 22 24 26
26 23 26 24 23 21 20 20 18 18 15 9 9 7 18 14 11 10 10 14 15 16 14 18 18 18 19 18 17 19 21 20 18 17 13 16 8 19 20 20 20 22 22 24 27
27 26 25 24 23 21 17 9 8 5 13 16 11 13 4 8 11 11 11 14 19 19 17 23 17 23 26 25 23 22 20 19 16 24 19 18 16 15 17 17 20 24 24 26 27
27 28 25 23 21 15 9 7 8 8 16 23 32 33 28 18 17 22 14 17 20 19 20 16 24 24 24 25 24 27 23 18 12 17 21 18 19 18 19 17 19 22 26 27 27
24 27 26 22 16 5 13 7 3 12 10 21 29 29 30 27 30 25 28 27 19 23 23 24 22 25 26 26 26 25 24 20 17 25 22 15 17 17 15 23 20 21 24 28 31
25 25 25 23 6 11 4 3 8 11 7 13 11 12 16 17 17 25 24 36 24 24 24 25 21 25 28 28 26 24 24 25 20 12 13 19 16 21 19 21 20 24 26 28 32
27 21 24 18 18 8 7 7 9 4 7 10 12 14 21 20 13 19 23 32 26 22 18 25 26 25 30 30 29 26 24 24 23 17 20 24 17 11 21 21 22 22 27 29 31
27 23 23 12 15 13 13 8 4 7 14 9 12 15 19 22 16 10 18 30 26 21 23 24 26 27 24 28 23 24 22 23 23 19 19 22 17 19 17 19 16 24 28 29 31
27 24 20 20 8 3 4 5 7 12 4 12 16 19 21 18 19 14 18 24 23 22 22 22 28 23 25 24 25 28 24 16 19 18 20 22 18 18 18 16 20 18 25 30 32
31 26 19 18 11 15 8 9 16 12 28 3 17 20 24 19 18 19 17 20 27 24 16 21 21 29 22 28 28 31 27 19 23 18 18 23 23 21 21 16 10 17 19 26 30
30 20 18 15 15 13 17 16 14 21 17 19 12 20 23 23 20 20 22 22 24 26 24 18 25 20 29 26 27 29 28 27 27 23 20 21 26 24 11 14 19 21 25 18 26
27 22 21 13 12 13 14 27 22 32 15 14 24 19 21 23 21 21 20 20 23 26 26 20 17 23 25 25 27 34 24 26 22 27 25 22 22 16 19 20 20 17 19 17 22
18 11 5 6 9 19 17 23 27 43 35 26 22 24 25 23 25 25 24 23 20 24 25 24 18 16 24 31 31 20 27 23 25 23 21 20 18 20 12 13 20 21 30 21 19
16 8 4 5 14 15 19 26 30 28 28 28 22 25 24 24 20 20 18 23 20 19 26 24 16 15 21 25 27 29 28 32 18 28 20 22 18 14 16 17 15 16 15 15 24
14 21 22 20 14 15 22 27 29 28 27 27 25 29 24 26 23 21 19 21 9 15 19 20 19 16 21 20 24 30 29 31 33 22 26 22 20 21 5 10 18 18 23 26 8
12 6 16 21 23 21 22 23 23 25 21 22 23 26 26 30 25 22 25 23 18 14 3 9 20 23 18 22 19 26 31 31 30 23 22 26 25 22 21 14 13 17 15 15 9
9 10 11 11 11 13 15 20 16 20 22 26 22 28 27 25 27 26 26 20 26 21 13 15 20 23 25 24 19 23 29 30 33 30 28 24 30 26 25 22 20 25 22 24 21
9 9 12 19 25 19 15 19 18 18 16 24 22 23 24 24 22 23 26 23 20 20 20 20 18 18 20 23 24 24 22 30 29 32 33 33 31 25 28 32 22 25 24 24 25
14 17 12 11 16 15 13 17 24 18 16 17 23 16 22 9 18 21 23 18 24 17 22 20 16 17 20 21 18 23 27 25 24 27 27 29 30 27 29 26 26 34 30 31 33
Wind_Direction
319 317 315 312 308 308 309 310 309 307 305 303 301 305 313 311 310 299 271 254 227 224 227 214 209 228 233 248 253 276 292 246 261 47 121 142 125 136 108 136 154 130 136 153 154
320 317 316 316 313 311 307 305 305 304 303 301 299 301 310 314 305 278 265 251 246 228 218 203 212 215 232 241 247 244 335 305 26 163 121 154 139 138 152 148 147 137 127 153 157
319 317 314 311 310 309 307 306 304 302 301 300 301 301 305 315 307 262 201 299 228 205 205 210 219 219 234 243 232 240 172 291 123 9 127 150 148 147 149 167 160 154 150 160 164
319 316 312 311 309 308 306 304 303 302 301 300 300 302 302 307 287 174 217 309 350 191 200 211 219 223 235 236 235 246 174 238 72 120 190 157 147 159 168 160 158 163 165 168 171
323 318 314 309 309 308 307 305 303 301 300 299 299 301 301 268 263 252 271 275 231 194 202 213 218 223 233 240 233 227 277 200 214 160 233 152 152 154 167 142 152 157 167 175 178
326 320 315 312 310 308 305 301 301 300 299 298 298 296 289 263 265 236 215 185 190 196 210 214 221 223 242 245 245 223 224 261 227 183 197 196 150 169 157 158 154 162 173 179 184
326 323 320 318 314 308 304 303 299 299 298 298 297 290 266 250 244 234 209 214 210 211 214 217 221 226 233 257 245 258 248 220 222 180 170 209 161 203 162 169 164 171 178 183 189
327 321 318 317 316 312 308 301 297 297 296 296 292 276 259 257 242 231 224 229 222 219 219 219 219 234 240 231 251 226 240 241 182 179 158 217 182 184 166 171 174 178 182 187 193
330 326 321 319 313 311 310 305 300 295 291 290 294 221 261 220 235 222 216 221 210 209 210 217 221 223 235 243 243 226 227 228 147 172 157 217 228 171 169 183 187 184 187 192 196
333 328 323 323 320 317 312 307 302 292 281 265 233 240 242 223 199 180 192 201 194 186 194 205 208 211 222 218 224 219 221 222 179 173 189 208 250 146 169 193 194 190 193 195 197
331 326 325 326 323 324 321 328 310 256 231 234 249 225 114 182 183 214 196 195 196 193 205 196 205 209 210 223 228 235 221 235 216 161 196 192 229 157 173 199 203 190 201 197 203
329 326 325 327 325 322 323 313 322 314 292 256 255 252 252 245 239 223 196 202 205 210 211 187 216 215 219 218 227 242 246 235 227 152 193 202 210 195 175 203 207 206 201 207 205
329 326 326 326 333 352 317 267 288 335 266 277 242 239 240 227 232 229 221 215 212 214 212 220 209 216 216 223 224 233 244 243 230 155 219 227 227 201 186 187 212 214 211 208 210
326 326 328 329 339 315 314 272 298 330 276 258 191 224 203 203 223 222 218 209 226 221 224 225 223 203 220 221 224 227 232 253 239 178 246 207 248 194 206 198 192 214 212 211 209
319 322 318 330 309 302 298 301 297 291 277 110 144 154 177 191 123 193 209 199 215 213 217 224 223 218 212 220 220 232 230 234 249 216 194 219 225 209 216 198 194 204 214 214 210
316 316 312 324 301 280 282 281 288 230 237 189 161 187 183 209 236 147 199 203 216 225 225 237 213 225 222 223 220 231 240 241 236 248 249 239 218 250 172 229 196 194 206 214 214
316 312 301 290 253 241 263 242 227 233 151 202 192 190 203 192 208 184 198 197 205 212 219 223 231 219 231 216 219 224 227 231 234 229 235 239 219 206 239 213 205 225 207 203 209
321 315 306 278 262 255 235 225 234 241 228 74 200 199 206 213 202 191 197 208 211 213 220 215 217 227 209 220 220 215 219 223 225 231 232 230 241 233 230 233 236 213 228 196 198
327 323 293 268 248 215 213 221 229 237 268 233 215 240 208 228 230 210 212 211 211 220 223 216 223 212 220 217 224 219 220 229 237 231 237 226 219 243 256 239 226 243 236 225 189
325 314 288 235 225 200 226 237 237 251 279 265 239 229 233 211 214 235 218 221 224 214 229 233 248 209 210 216 221 236 218 221 231 240 242 233 238 220 205 224 242 221 236 213 208
332 298 232 192 212 222 233 238 238 257 268 250 257 244 241 239 233 218 227 238 228 224 212 228 238 231 204 204 217 218 233 225 228 234 243 245 242 221 202 206 219 223 230 205 205
303 266 205 214 224 235 241 248 259 267 253 247 258 265 259 256 244 256 232 240 201 223 212 214 224 225 234 222 212 228 226 231 231 223 239 256 248 194 211 196 235 262 257 228 191
291 279 268 245 249 250 257 260 251 256 256 258 250 241 253 260 253 243 236 246 200 236 228 200 227 222 221 240 214 216 229 231 230 235 229 235 238 254 237 216 209 214 239 249 164
293 284 271 220 246 263 272 273 273 259 263 276 263 265 238 249 245 243 243 246 225 225 354 267 222 226 221 223 224 215 220 236 232 232 231 239 246 234 230 185 222 215 253 244 227
264 271 317 291 255 354 313 321 281 291 278 256 254 253 255 240 239 240 242 230 232 219 240 234 231 231 227 258 233 230 218 225 236 239 237 237 234 236 233 224 216 223 245 259 235
266 289 300 286 292 293 272 274 276 261 278 283 287 251 248 256 249 233 232 235 225 202 218 216 232 241 238 232 238 257 236 221 226 241 243 245 250 245 244 250 227 213 229 252 264
258 267 269 279 278 268 269 252 289 264 264 254 276 337 294 308 328 313 315 266 233 228 203 219 216 224 231 233 242 232 238 247 244 232 233 244 250 251 258 255 242 237 239 248 259